RH
66 66 64 63 61 60 59 58 58 58 60 61 62 64 64 65 65 66 67 67 68 68 68 68 66 64 62 59 57 55 55 55 56 58 60 61 61 62 63 64 64 64 64 66 68 69 66 62 60 60 60 61 61 61 60 58 57 57 58 60 62 64 66 69 72 75 76 76 75 75 75 74 74 73 72 72 72 71 69 68 68 67 66 67 69 71
66 67 67 66 65 64 62 61 60 59 59 60 61 62 63 63 64 65 66 66 67 67 66 66 65 64 62 60 58 56 55 56 58 60 62 64 65 65 66 66 66 65 66 68 69 68 62 60 60 60 60 60 59 58 56 56 57 58 60 62 64 67 70 72 74 76 75 75 75 75 75 75 75 74 73 72 71 70 70 69 68 67 65 67 70 73
65 66 68 68 67 66 65 64 63 61 59 60 60 60 61 61 62 63 64 64 65 64 63 64 64 64 64 62 60 58 57 58 60 63 65 66 67 68 68 68 67 67 68 69 68 64 60 60 60 60 60 58 56 54 53 55 59 63 67 67 68 70 73 74 75 75 74 74 74 75 75 75 75 75 73 72 71 70 69 69 68 67 66 69 73 77
65 67 68 69 69 68 67 66 65 64 62 61 61 61 61 60 60 60 61 62 62 61 60 62 64 65 66 65 63 61 59 60 62 65 67 68 69 69 69 69 68 68 69 69 66 61 59 60 60 59 57 54 51 50 51 57 64 69 72 73 74 74 75 75 75 75 74 74 75 75 76 76 76 75 73 71 70 70 69 69 68 68 68 72 76 81
66 67 68 70 71 71 69 69 68 68 66 65 65 65 64 62 60 60 60 61 60 60 60 61 63 65 66 66 65 63 61 61 63 65 66 68 68 69 70 69 69 69 68 67 63 60 58 57 56 53 49 46 45 47 52 61 68 72 74 75 76 76 76 76 76 76 75 75 76 76 76 75 74 73 72 71 71 70 70 70 69 69 70 73 77 81
67 67 68 71 73 74 72 72 72 73 72 71 70 69 68 65 63 61 61 61 60 60 60 61 62 63 64 65 64 64 63 62 63 63 64 66 68 70 71 70 70 69 68 66 62 59 55 52 49 45 40 39 42 48 57 66 71 75 76 76 77 77 77 77 77 77 76 77 78 78 78 76 74 72 71 72 72 71 70 70 70 70 71 74 78 81
69 69 69 71 74 76 76 75 76 77 77 76 74 73 71 69 66 64 63 62 62 62 62 61 61 61 62 63 64 64 65 64 64 63 64 68 70 71 71 70 69 69 69 66 61 56 51 47 43 38 35 38 45 54 66 72 75 77 78 78 77 77 77 78 78 78 78 79 80 80 79 76 74 72 71 72 72 72 70 71 72 73 75 78 80 82
73 72 72 74 77 80 81 80 80 80 79 78 77 75 74 72 71 69 68 67 66 66 65 64 62 61 61 62 64 66 68 69 69 69 69 72 73 73 71 70 71 71 71 67 60 53 48 43 38 35 35 42 52 64 74 77 79 80 80 79 78 77 78 78 78 78 79 81 82 81 79 76 73 71 71 73 73 72 70 72 74 76 79 81 83 84
75 76 76 77 80 83 85 85 84 82 80 79 79 78 78 77 77 76 75 73 71 70 69 67 65 64 64 65 67 70 73 75 75 75 76 76 74 71 69 71 73 74 72 66 58 51 46 40 36 35 38 48 60 71 78 80 81 81 81 80 79 78 78 78 78 79 80 81 81 80 77 75 73 72 73 73 72 71 71 72 75 77 79 80 81 81
77 77 79 78 80 82 85 85 85 83 81 80 82 83 84 84 84 82 80 77 75 73 71 71 70 69 68 69 71 75 78 79 79 78 78 76 71 68 67 71 74 73 70 62 55 48 41 37 35 37 44 55 65 74 79 80 80 80 80 80 79 79 78 79 80 80 81 81 79 77 74 74 74 74 75 73 72 71 72 74 76 78 79 79 79 78
82 81 82 82 82 83 84 85 84 83 82 83 86 90 90 89 88 87 85 81 78 75 74 74 74 74 74 74 75 77 81 83 82 81 78 72 67 65 68 71 71 69 65 58 50 42 37 34 36 41 51 61 70 76 78 78 78 78 79 80 80 79 78 79 80 81 80 79 77 75 74 75 76 76 76 73 71 71 73 75 77 79 80 80 79 78
86 86 86 84 85 86 88 87 87 86 85 87 90 94 95 93 92 90 88 85 83 81 80 79 79 80 81 79 77 78 82 84 83 80 74 68 66 67 71 71 68 64 59 50 43 38 34 34 37 44 57 65 71 75 76 75 75 75 77 80 81 80 79 79 79 80 79 78 77 76 76 77 77 77 76 73 71 71 74 77 79 81 81 81 80 78
90 89 89 88 88 89 91 91 91 92 91 91 92 93 93 92 92 92 92 91 90 89 87 87 86 86 85 83 80 78 80 81 79 75 69 66 67 69 70 68 64 58 50 42 36 32 30 31 36 43 56 64 69 72 74 73 72 73 76 79 81 81 79 78 78 79 80 80 79 79 78 78 78 77 76 72 70 71 74 77 80 81 83 82 81 80
92 92 92 92 92 92 92 93 93 93 93 92 91 91 90 91 93 95 96 96 96 95 94 93 92 90 88 85 82 79 77 75 72 68 66 67 68 69 67 63 57 49 41 35 32 29 29 31 33 38 47 58 64 68 70 71 72 73 76 78 80 80 79 79 79 79 80 80 81 81 79 78 79 79 77 74 72 72 74 76 78 79 80 80 81 81
94 93 93 93 93 93 94 94 93 93 92 92 92 92 93 95 97 99 99 98 99 99 98 96 94 91 89 85 81 77 73 71 69 68 70 71 70 67 62 57 50 42 35 34 33 33 35 36 35 35 38 46 53 59 63 65 68 71 74 76 77 77 77 78 79 80 81 81 82 82 79 78 78 79 78 77 76 76 76 77 78 78 78 78 79 81
93 94 94 94 93 93 95 95 94 93 93 94 95 96 98 99 99 99 98 98 99 99 97 96 94 92 90 85 78 73 69 71 73 76 77 74 69 63 56 51 45 39 36 37 39 41 44 44 42 39 38 41 45 52 60 63 65 68 70 73 75 76 77 78 79 80 82 82 83 83 81 79 78 78 77 77 78 79 80 80 80 79 78 78 79 81
93 94 95 95 94 94 94 96 95 94 94 95 96 96 97 98 98 98 98 98 98 97 96 95 94 93 91 86 79 72 68 75 80 83 80 73 65 57 50 48 44 41 41 45 48 50 51 51 48 45 42 42 46 52 61 64 66 68 70 72 75 78 79 80 80 81 82 82 82 83 82 79 77 76 76 77 78 80 80 81 82 82 82 81 80 80
94 95 95 95 94 93 93 95 96 96 97 96 96 96 96 97 98 99 99 98 97 96 95 94 96 98 96 93 86 78 71 80 85 85 79 69 60 52 47 46 44 43 46 50 53 55 55 53 50 47 44 44 47 52 60 63 65 67 70 74 76 79 81 82 82 83 83 83 83 84 84 80 77 76 76 77 78 79 79 80 82 83 84 83 82 81
95 95 95 95 93 93 93 94 95 96 97 97 97 97 98 99 99 100 100 98 96 94 94 95 96 96 96 92 88 84 79 86 88 84 74 64 55 49 47 47 47 47 51 54 56 56 55 52 49 46 44 45 49 55 61 64 66 68 71 74 77 79 80 83 83 83 81 83 85 85 84 80 78 76 76 76 77 77 78 80 82 84 85 85 84 82
95 95 94 94 94 93 94 95 95 95 95 95 96 96 97 98 99 100 100 98 97 95 94 94 95 95 94 89 87 86 86 90 88 81 69 61 54 49 47 49 50 53 56 57 57 57 55 52 50 47 46 49 54 60 64 66 68 70 73 76 78 80 82 84 84 83 81 83 84 84 85 82 79 77 76 76 77 78 79 81 83 85 86 86 84 81
97 96 95 95 95 95 95 96 95 94 94 95 96 97 97 98 98 98 98 98 97 97 96 96 95 95 95 89 87 87 89 90 85 77 65 58 53 49 46 49 53 57 60 60 59 58 56 53 51 49 49 51 57 63 66 68 70 72 75 78 80 83 85 85 84 83 82 80 81 82 83 82 81 79 77 76 76 78 80 82 84 85 86 86 86 85
98 97 94 95 95 96 96 95 95 95 95 96 97 97 98 98 97 98 98 99 99 98 97 97 96 96 93 89 87 86 87 88 82 72 61 59 55 50 46 50 55 59 62 62 61 60 58 56 54 53 53 54 59 64 66 68 70 73 76 78 81 83 85 84 84 83 83 77 77 80 81 83 84 83 81 78 77 78 80 82 84 86 86 86 86 86
99 99 98 97 97 96 95 96 96 97 97 97 97 97 97 97 97 97 97 98 98 98 98 98 98 96 92 90 88 87 86 83 75 66 58 58 55 51 47 52 56 60 62 63 63 62 60 58 57 56 55 57 60 64 65 67 69 71 74 76 79 81 82 82 81 81 83 80 79 78 79 81 83 84 84 81 79 79 80 83 84 85 85 85 85 86
99 99 99 98 98 97 95 97 98 99 99 98 97 97 96 96 96 96 97 98 98 98 98 98 97 95 93 92 91 88 84 78 69 61 56 56 53 49 48 52 57 60 62 63 63 62 61 59 57 56 56 56 59 62 63 64 66 68 70 73 76 78 80 79 79 80 81 82 81 80 79 79 81 83 85 85 83 82 82 83 83 83 83 84 84 84
99 99 99 99 98 97 96 97 98 99 99 99 99 98 98 98 98 98 99 99 99 99 98 96 95 94 95 95 94 91 85 76 67 59 54 54 51 48 48 53 57 60 62 63 62 61 59 57 56 56 56 55 56 58 60 62 63 64 66 70 73 76 78 78 79 79 80 82 82 80 79 79 81 83 84 85 85 85 85 84 84 84 84 85 85 85
98 98 98 98 98 98 98 98 98 99 99 99 99 98 99 99 99 98 98 98 98 98 97 96 94 93 94 95 95 93 88 79 69 60 52 52 51 51 50 55 58 60 61 61 60 59 57 56 55 55 55 54 53 53 55 59 61 63 65 68 72 74 77 78 79 79 80 82 81 81 81 81 82 83 84 85 85 86 85 85 85 85 85 85 86 87
98 98 98 98 98 98 98 98 98 99 99 99 99 99 99 99 99 98 98 98 98 98 96 96 93 91 90 91 92 93 92 84 74 62 50 49 52 54 53 56 58 59 60 59 58 57 56 57 56 56 55 52 50 49 50 55 60 63 66 69 72 74 76 78 79 80 80 81 81 80 81 82 82 83 83 83 83 84 83 84 85 85 86 86 87 88
97 97 97 98 98 98 98 98 98 98 99 99 99 99 99 98 98 98 97 98 98 97 95 95 93 89 87 87 89 91 92 88 78 65 51 51 56 59 55 57 58 59 59 59 58 58 58 59 58 56 53 49 48 49 51 55 60 64 67 70 72 74 76 77 78 78 79 80 80 80 80 81 82 82 82 81 80 80 81 83 84 85 86 87 88 90
96 96 97 98 98 98 98 98 98 99 99 99 99 99 99 98 98 97 97 98 98 97 96 95 94 91 88 86 86 87 88 86 77 65 55 56 61 63 59 59 59 60 60 60 60 61 60 60 58 55 51 50 51 53 55 58 61 64 66 68 70 72 73 73 74 74 75 76 77 78 79 79 80 80 80 80 79 79 80 82 83 85 86 87 89 90
97 98 98 98 98 98 98 98 98 99 99 99 99 99 99 99 98 97 97 98 98 97 96 95 94 92 88 84 81 80 81 80 73 65 60 61 63 64 62 60 60 61 61 62 63 64 62 60 57 54 53 53 55 57 58 58 60 61 62 63 64 65 66 67 68 69 70 72 73 74 74 75 76 76 76 76 76 77 79 82 83 85 86 88 89 90
99 99 99 99 98 98 98 98 98 98 98 99 99 99 99 99 99 98 98 98 98 96 95 94 93 91 87 80 76 73 72 72 70 67 63 64 64 64 63 62 62 62 61 59 63 67 66 64 60 55 56 57 57 57 57 57 57 57 56 56 56 56 57 60 63 65 67 68 69 69 70 71 72 73 73 74 75 76 77 81 83 84 86 88 89 90
100 100 100 99 99 98 98 98 98 98 98 98 98 98 99 99 99 99 99 98 97 96 95 94 92 89 85 78 73 69 66 67 69 70 66 65 63 62 62 64 64 64 61 55 58 64 68 71 65 58 57 56 55 54 52 52 51 51 51 52 53 54 54 57 61 64 65 66 66 67 68 69 69 70 71 72 73 74 75 79 81 83 85 87 88 89
100 100 100 99 99 99 98 98 98 98 98 98 98 98 99 99 99 99 99 98 98 96 95 93 90 86 80 73 68 66 63 65 69 71 68 65 63 62 62 65 67 67 66 60 58 62 70 74 69 62 59 57 55 54 51 50 50 51 52 54 56 57 57 58 60 62 62 62 62 63 64 65 67 68 69 70 71 73 75 77 80 82 84 85 86 87
99 99 99 99 98 98 98 98 98 98 98 98 98 98 98 99 99 99 99 99 98 96 94 91 86 80 72 64 63 65 66 67 70 72 70 66 64 64 63 66 69 70 71 69 68 68 73 73 70 68 66 63 61 60 59 57 56 55 55 57 58 59 60 60 60 60 60 60 60 60 60 61 62 63 65 67 69 70 72 75 77 78 80 82 83 85
98 98 98 98 98 98 98 98 98 98 98 98 98 98 99 99 98 98 98 98 97 95 92 87 79 70 59 54 57 64 70 72 74 74 71 65 62 63 65 67 69 71 74 76 76 76 77 75 73 71 71 69 67 64 63 60 59 58 58 59 59 60 60 60 60 60 60 60 60 60 60 60 60 61 61 63 65 68 70 72 73 75 76 78 80 82
98 98 98 98 98 97 97 97 97 97 97 97 98 98 98 98 98 98 97 96 93 90 85 77 68 57 46 44 50 59 68 73 75 75 72 64 60 60 66 68 68 69 73 76 76 77 78 77 75 73 75 77 76 71 65 61 59 59 60 60 60 60 60 60 60 61 61 61 61 61 61 61 61 61 61 62 65 68 71 73 73 74 75 76 78 79
98 98 98 98 98 97 97 97 96 96 97 97 97 97 97 97 96 95 93 90 86 81 73 65 56 48 42 40 43 50 60 68 72 74 70 62 56 56 62 66 65 65 68 73 75 76 76 80 80 80 80 83 81 75 67 64 62 62 62 62 62 62 62 61 60 61 62 62 62 62 62 62 62 63 64 66 68 70 70 71 72 72 74 76 76 77
97 97 98 98 98 97 97 97 96 96 96 96 96 96 97 96 94 91 89 84 78 72 64 58 52 48 46 45 46 50 57 65 70 70 66 59 54 51 54 61 63 64 63 66 69 73 76 80 81 80 81 80 77 73 69 68 67 67 67 67 67 67 66 64 63 63 63 64 64 64 64 65 66 66 67 67 68 68 67 66 66 66 69 72 73 73
97 97 97 97 97 97 97 97 96 96 96 96 96 96 96 93 91 87 84 79 73 67 61 58 55 54 52 53 55 59 63 67 67 65 61 57 53 50 48 55 62 66 66 65 68 71 75 79 80 80 79 82 79 74 70 70 70 71 72 72 73 72 70 68 67 67 67 66 66 66 67 67 67 67 67 67 66 66 66 66 65 65 66 67 67 67
97 97 97 97 97 97 96 96 96 96 96 96 96 95 94 92 89 86 82 78 74 70 66 63 62 61 60 61 64 66 67 66 64 61 58 56 55 53 51 52 58 65 71 73 74 76 77 78 80 81 82 85 84 79 76 75 75 75 76 77 76 73 70 69 69 69 68 68 68 68 67 67 66 66 66 66 66 66 66 67 67 66 66 66 65 65
97 97 98 97 97 96 96 96 96 96 96 96 95 94 93 91 89 87 85 82 78 76 73 72 72 73 73 74 74 73 72 69 66 62 60 58 57 56 56 56 59 64 74 78 80 81 80 80 81 81 81 80 81 81 81 80 79 79 80 80 78 76 75 73 73 72 71 70 69 68 68 67 67 67 67 66 66 66 65 66 65 65 64 64 64 65
97 97 97 96 96 95 95 95 96 96 96 95 95 93 92 90 89 88 87 85 83 81 77 76 76 77 79 81 80 77 75 72 68 65 62 60 59 59 61 63 66 70 76 81 83 84 83 82 82 81 81 81 81 81 82 81 80 80 81 81 80 80 79 76 73 70 71 69 68 67 67 66 67 67 66 66 65 65 64 64 64 64 64 65 66 67
98 97 96 96 95 95 95 95 95 95 95 94 94 92 90 87 86 85 86 87 86 84 79 75 73 75 79 80 78 74 71 67 64 62 61 61 62 63 64 67 71 76 81 84 85 85 85 83 82 81 81 80 80 81 82 81 80 80 80 80 80 81 80 76 71 68 68 68 68 68 67 67 67 66 66 66 65 64 64 63 63 64 64 65 66 67
97 96 95 95 95 95 95 95 95 95 94 94 93 91 89 86 84 84 86 87 87 85 82 77 74 75 83 89 89 84 77 72 69 68 68 68 69 69 69 71 75 80 84 86 86 85 84 83 82 81 80 80 80 81 82 82 82 81 80 79 80 81 80 76 74 72 73 73 72 72 71 70 70 69 68 66 65 64 64 64 63 63 64 64 65 66
96 95 95 95 95 95 95 95 95 94 94 93 92 91 90 87 86 86 87 89 89 87 84 80 78 80 85 90 92 92 89 86 83 81 80 80 80 79 77 76 77 80 84 86 87 86 84 83 82 81 80 81 81 82 83 83 83 82 81 80 80 81 81 79 78 78 79 78 77 75 73 72 70 69 68 66 66 65 64 64 64 64 65 65 66 67
96 96 96 95 95 95 96 95 95 94 93 92 91 92 91 90 89 89 89 89 89 88 84 80 79 81 83 87 90 92 92 92 90 89 88 87 87 86 85 84 82 82 83 85 88 89 88 85 84 83 83 84 84 84 84 84 84 84 83 82 82 82 82 81 80 79 79 79 77 75 72 70 69 69 68 67 67 66 65 65 66 66 66 67 68 69
96 96 96 96 96 96 95 95 94 93 93 93 93 93 92 92 92 91 91 90 88 87 84 81 79 79 80 83 86 89 90 92 92 91 90 90 90 90 90 90 90 89 87 87 88 90 90 89 88 88 88 88 86 85 84 85 85 85 85 84 84 84 85 83 81 78 76 77 76 74 72 71 70 69 69 68 67 67 66 66 66 67 68 69 70 70
95 95 95 95 95 95 95 94 93 93 92 93 93 93 92 92 92 92 92 90 87 85 84 82 80 79 79 81 83 84 86 89 91 92 91 91 91 92 92 92 92 92 90 90 91 91 91 91 91 92 92 91 89 86 85 85 85 85 85 85 85 86 86 83 80 76 75 75 74 73 72 71 70 69 69 68 68 68 68 68 68 68 69 70 71 72
95 95 95 95 95 94 94 94 93 92 92 93 94 94 93 92 92 92 91 89 87 85 83 82 80 78 78 79 80 81 82 85 87 88 89 90 91 92 92 92 91 90 89 89 88 87 86 85 85 86 89 91 91 90 89 87 85 84 83 83 85 86 86 84 80 76 75 75 74 73 72 71 70 69 68 69 69 69 69 70 70 71 71 72 73 74
96 96 95 95 94 94 94 93 93 92 92 93 93 94 94 93 93 92 91 89 86 84 82 80 78 77 78 79 79 79 80 81 82 83 84 85 86 87 88 87 86 85 85 84 83 81 78 76 75 74 73 78 83 87 90 89 86 84 83 84 84 84 85 84 81 77 76 75 75 73 72 71 69 69 69 70 71 72 72 72 73 74 74 74 75 75
96 96 96 95 94 94 94 93 93 92 92 93 93 94 94 94 93 92 91 88 86 83 81 79 77 77 78 79 79 79 79 79 80 80 81 81 82 82 83 83 84 85 85 83 79 74 69 70 70 69 63 64 68 75 81 85 86 86 86 85 83 82 83 82 80 78 76 76 75 74 73 71 71 70 71 72 73 75 75 75 76 76 76 76 76 76
Wind_Speed
29 30 29 29 27 27 29 32 33 35 37 39 41 41 42 42 43 43 42 41 40 39 37 36 36 35 34 34 33 33 33 32 31 30 29 28 27 27 26 26 25 24 23 23 22 22 22 21 20 19 19 18 18 18 18 17 17 16 16 15 14 14 13 12 12 12 12 12 13 13 13 13 14 14 15 15 15 15 16 16 16 16 17 17 17 17
30 30 30 31 30 29 29 32 34 36 37 39 41 42 42 42 42 42 41 41 40 38 37 36 35 35 34 34 33 33 33 32 31 29 28 27 27 26 26 25 24 23 23 22 22 22 22 21 20 18 18 18 17 17 17 17 16 16 15 15 14 13 12 12 12 12 12 12 13 13 13 13 14 14 15 15 15 16 16 16 16 16 16 17 17 17
28 27 28 31 31 30 30 31 34 36 37 39 40 41 41 41 41 41 40 40 39 38 36 36 35 35 34 34 34 34 34 32 31 29 28 27 26 25 25 24 23 23 22 21 21 21 21 20 19 18 17 17 17 17 17 16 16 15 15 14 13 13 12 12 12 12 12 13 13 13 14 14 14 14 15 15 16 16 16 16 16 17 17 17 17 17
27 24 26 28 31 32 33 32 33 35 36 37 37 37 38 39 39 39 40 39 38 37 36 35 35 34 34 33 34 34 34 33 31 29 27 26 26 25 24 23 23 22 22 21 21 21 21 19 18 17 17 17 17 17 17 16 15 15 14 13 13 13 12 12 12 13 13 13 14 14 14 14 15 15 15 16 16 16 16 17 17 17 17 17 18 18
28 26 27 26 27 30 34 33 32 33 34 34 33 34 34 36 36 37 37 37 37 36 35 34 33 33 33 33 33 34 34 33 31 29 28 26 25 24 24 23 22 22 22 21 21 21 20 19 18 17 17 17 17 17 16 16 15 14 14 13 13 13 13 13 13 13 14 14 14 14 15 15 15 16 16 16 16 17 17 17 17 17 17 17 18 18
31 31 29 27 26 28 32 32 31 30 29 29 30 30 31 32 32 32 32 32 33 33 33 33 32 32 32 32 33 33 33 32 31 30 28 27 26 25 24 23 23 22 22 21 21 21 20 19 18 17 17 17 17 17 16 15 15 14 14 14 13 13 13 13 14 14 14 14 15 15 15 15 16 16 16 17 17 17 17 17 17 17 17 17 18 18
32 33 31 28 27 28 30 31 31 29 27 26 25 25 26 26 27 27 28 29 29 30 30 30 30 29 29 30 30 31 31 31 30 30 29 27 26 26 25 24 23 22 21 21 20 20 19 18 17 17 16 16 16 16 15 15 15 15 14 14 14 14 14 14 14 15 15 15 15 15 15 16 16 16 17 17 17 17 17 17 17 17 17 17 17 18
27 30 29 26 24 25 27 29 31 30 28 26 23 21 20 20 21 22 23 25 26 26 26 27 27 26 26 27 28 29 29 29 29 29 28 28 27 26 25 24 23 21 20 20 19 18 17 16 16 16 15 15 15 15 15 15 15 15 14 14 14 15 15 15 15 15 15 15 15 15 16 16 17 17 17 17 17 17 17 17 17 17 17 17 17 18
24 23 24 24 22 20 20 23 28 30 30 27 24 20 18 17 18 18 19 21 22 24 24 25 25 25 26 26 26 27 28 29 29 29 29 28 27 26 25 23 22 20 20 19 18 17 16 15 15 15 15 15 14 14 15 15 15 15 15 15 15 15 15 16 16 16 16 16 16 16 16 17 17 17 17 17 17 17 17 17 17 17 17 17 17 18
27 23 22 24 25 22 17 17 22 28 30 28 25 23 21 19 17 17 17 19 21 23 24 25 25 25 26 26 27 28 28 29 29 29 29 28 27 26 24 22 21 20 19 18 17 16 16 15 15 15 15 14 14 15 15 15 15 15 15 15 16 16 16 16 16 16 16 16 16 17 17 17 17 17 17 17 17 17 17 17 17 17 17 17 18 18
23 23 20 19 22 23 20 19 21 26 28 27 24 23 23 23 22 18 15 17 20 23 24 25 26 26 26 26 27 28 28 28 28 27 26 25 24 23 22 21 20 19 18 18 17 16 15 15 15 15 15 15 15 15 15 15 15 15 16 16 16 16 16 16 16 16 16 16 17 17 17 17 17 17 17 17 17 17 17 17 17 17 17 18 18 19
16 18 18 18 17 16 18 20 22 25 25 22 18 17 20 25 26 23 18 16 19 22 23 25 27 28 28 28 28 28 28 28 27 26 25 23 22 21 20 19 19 19 18 18 17 16 15 15 15 15 15 15 15 15 15 15 15 16 16 17 17 17 17 17 16 16 16 16 16 17 17 17 17 17 17 17 17 17 17 17 17 17 18 18 19 20
18 18 17 18 17 15 14 16 15 15 17 18 14 11 15 24 27 26 23 20 21 22 24 24 25 27 30 30 29 28 28 27 27 26 25 23 22 21 21 20 20 19 19 18 18 17 16 15 15 15 15 15 15 15 15 15 16 16 16 17 17 17 17 16 16 16 16 16 16 16 17 17 17 17 17 17 17 17 17 17 17 18 18 19 19 20
14 15 14 11 11 13 15 15 12 10 13 18 20 21 23 25 25 24 22 21 21 23 24 22 22 24 27 28 29 29 28 27 26 25 24 24 24 23 22 21 20 20 19 18 18 17 16 15 15 15 15 15 15 15 15 16 16 16 17 17 17 17 16 16 16 16 16 16 16 17 17 17 17 17 17 17 17 17 17 17 18 18 19 19 20 20
9 9 6 4 5 8 13 15 14 13 17 22 25 25 25 22 21 21 19 17 18 20 20 19 18 19 22 24 26 27 28 27 25 23 23 24 24 23 21 20 19 19 19 18 17 16 15 14 14 14 14 14 15 15 15 16 16 17 17 17 17 16 16 16 16 16 16 16 16 17 17 17 17 17 17 17 17 17 18 18 18 19 19 20 20 20
11 11 8 5 3 6 12 15 16 17 21 24 24 23 20 18 20 23 21 18 17 17 15 12 9 10 14 20 24 26 27 26 24 23 22 22 23 22 20 19 18 18 18 17 16 15 14 13 13 13 13 13 14 14 15 16 16 16 17 16 16 16 16 16 15 15 16 16 16 17 17 17 17 17 17 17 18 18 18 18 19 19 19 20 20 21
10 9 7 7 5 6 14 18 21 22 23 24 25 25 23 21 23 24 22 19 16 14 11 7 4 3 5 13 20 26 27 26 24 22 21 20 21 21 19 18 17 17 17 17 16 15 14 14 14 13 13 13 14 14 15 15 16 16 16 16 16 16 15 15 15 16 16 16 17 17 17 17 17 17 17 17 18 18 18 18 19 19 20 20 20 21
12 12 9 6 4 8 15 18 21 24 23 23 24 26 26 26 25 23 21 20 16 11 9 6 4 3 3 3 13 25 29 27 24 21 19 18 19 19 19 17 17 18 18 17 17 16 15 15 15 14 14 14 14 15 15 16 16 16 16 16 16 16 16 16 16 16 16 17 17 17 17 17 17 17 17 17 18 18 18 19 19 20 20 20 21 21
14 16 15 10 8 12 17 19 21 23 23 23 24 24 24 24 23 22 20 20 18 15 11 7 5 4 4 4 12 24 29 28 24 20 17 17 17 18 18 18 18 18 18 18 18 17 17 16 16 15 15 15 15 15 15 16 16 16 16 16 16 16 16 16 16 16 16 16 17 17 17 17 17 17 17 17 18 18 18 19 19 20 20 20 21 21
13 15 16 15 16 16 16 20 24 26 27 29 28 25 21 21 21 20 19 20 20 20 18 11 8 7 9 10 15 22 28 27 23 19 16 15 16 17 18 18 19 19 19 19 18 18 18 17 16 16 16 15 15 15 15 16 16 16 16 16 16 16 16 16 16 16 16 16 16 17 17 17 17 17 17 17 18 18 18 19 19 20 20 20 21 21
16 17 24 27 24 19 14 19 27 31 33 33 30 25 22 21 20 20 20 21 20 19 17 12 11 12 13 13 16 20 26 27 22 17 14 13 13 15 18 19 19 19 19 19 18 18 18 17 16 16 16 15 15 15 16 16 16 16 16 16 16 16 16 16 16 16 16 16 16 16 16 17 17 17 17 17 18 18 19 19 20 20 20 21 21 21
25 25 30 34 32 27 24 26 30 34 35 34 29 25 22 21 19 19 21 21 19 17 14 12 11 13 14 15 17 21 25 26 22 17 12 7 9 14 17 18 19 18 18 18 18 17 17 16 16 15 15 15 15 15 15 16 16 16 16 17 17 16 16 16 16 16 16 15 16 16 16 16 17 17 17 17 18 18 19 19 20 20 21 21 21 21
35 33 34 36 36 35 35 34 34 34 35 35 34 31 28 27 26 25 25 24 22 19 18 16 15 15 15 16 18 20 23 23 21 17 12 5 5 11 16 18 18 17 17 17 17 16 16 16 15 15 15 15 15 15 15 15 16 16 16 16 16 17 16 16 16 16 15 15 16 16 16 16 17 17 17 17 18 18 19 20 20 20 21 21 21 21
40 39 38 38 37 37 38 38 36 34 33 34 36 36 37 35 34 32 31 29 27 24 22 20 18 16 15 15 17 18 21 21 19 15 11 5 5 9 15 18 17 16 16 17 16 16 15 15 15 15 15 15 15 15 15 15 15 15 16 16 16 17 16 16 16 16 15 15 16 16 16 16 16 17 17 17 18 18 19 20 20 20 20 20 21 21
40 40 41 41 40 39 39 39 37 35 33 34 34 35 35 33 32 30 29 28 26 25 23 19 14 10 10 12 13 15 19 20 19 15 11 7 6 9 14 17 17 16 15 15 15 15 15 15 15 15 16 16 16 15 15 14 15 15 15 16 16 16 16 16 16 16 16 16 16 16 16 16 16 17 17 17 18 18 19 19 20 20 20 20 20 20
42 43 45 44 43 42 40 39 38 37 35 35 35 34 33 31 28 26 25 24 24 23 19 11 5 4 7 9 10 12 17 20 20 18 14 9 7 9 13 16 17 16 14 14 14 14 14 15 15 15 16 17 17 16 15 14 14 14 15 15 16 16 16 16 16 16 16 16 16 16 16 16 17 17 17 18 18 18 19 19 19 20 20 20 20 20
41 43 45 44 43 41 38 38 38 37 36 36 36 36 35 32 28 23 18 20 23 21 13 7 4 5 5 5 7 11 16 18 20 19 17 12 8 8 12 15 17 16 14 12 12 13 13 14 15 15 16 16 16 15 14 13 13 13 14 14 15 15 16 16 16 16 16 16 16 16 17 17 17 17 18 18 18 18 19 19 19 19 19 19 20 20
35 37 39 39 38 37 36 36 36 35 35 36 37 38 38 35 27 17 13 21 25 21 10 7 6 5 4 3 6 11 15 17 19 20 18 14 8 7 12 16 16 15 12 11 11 12 12 13 14 15 15 14 12 11 10 10 11 12 12 13 13 14 14 15 15 16 16 17 17 17 17 17 18 18 18 18 18 19 19 19 19 19 19 19 19 19
26 27 28 28 28 29 30 30 30 31 32 34 36 38 40 37 30 24 24 28 26 18 8 6 5 4 4 4 6 9 12 15 18 20 19 13 8 7 14 16 15 14 12 9 8 9 11 13 14 14 12 10 8 6 6 7 9 10 11 11 12 13 13 14 15 16 16 17 17 17 18 18 18 18 18 18 18 19 19 19 19 19 18 18 18 19
17 16 16 16 17 19 21 23 24 26 28 30 33 35 36 36 35 33 34 33 28 19 8 5 5 4 4 5 5 4 7 14 19 21 20 13 7 8 14 15 15 15 13 8 4 3 6 9 11 11 9 7 6 6 7 8 9 10 11 12 12 13 13 14 15 16 16 17 17 17 17 17 17 17 18 18 19 19 19 19 18 18 18 19 19 19
10 11 11 12 14 16 18 20 21 22 24 25 27 29 30 30 30 32 34 34 31 24 15 10 8 8 7 5 3 2 3 13 20 22 21 15 10 11 15 14 14 15 14 10 4 0 1 3 6 9 8 8 8 8 9 10 11 11 12 13 14 14 15 14 14 15 15 15 16 16 16 16 16 17 17 18 18 19 19 19 18 18 18 19 19 19
13 13 14 15 16 17 18 19 20 21 22 22 23 24 25 25 26 29 32 33 32 28 22 17 15 13 12 7 4 3 4 13 20 23 23 17 13 14 17 15 14 14 14 12 7 3 1 0 4 8 9 9 9 10 11 11 12 13 13 14 14 15 15 14 13 14 14 14 14 15 15 15 16 16 17 17 18 18 18 18 18 18 18 18 19 19
15 15 16 17 17 18 18 19 20 21 21 21 21 22 23 24 26 28 31 31 30 28 25 22 18 15 13 9 6 5 7 14 20 24 24 18 14 13 16 15 14 14 14 12 9 4 2 1 3 5 7 9 10 11 12 12 13 13 13 13 14 14 13 13 13 13 14 14 15 15 15 15 16 16 17 17 18 18 18 18 18 17 18 18 19 19
16 16 16 17 18 18 18 19 20 20 19 19 20 20 22 23 25 27 28 28 27 26 25 24 21 17 14 9 5 5 8 15 20 23 24 20 15 13 16 15 14 14 13 11 9 6 3 4 4 4 4 7 9 11 12 12 12 11 11 11 12 12 12 12 13 14 14 15 16 17 17 17 17 18 18 18 18 18 18 17 17 17 17 18 18 19
16 16 17 17 18 18 18 19 19 19 19 19 19 20 21 23 24 25 25 24 23 22 21 22 22 21 19 13 7 6 9 16 20 23 23 21 17 14 15 15 15 15 12 11 9 6 3 5 6 5 3 4 7 9 11 11 10 9 8 9 10 11 11 12 13 14 15 16 17 18 18 19 19 20 20 19 18 18 17 17 17 17 17 17 17 18
15 15 16 17 17 17 17 18 18 19 19 19 20 20 21 22 23 23 22 22 20 19 18 18 18 19 20 19 15 14 16 19 21 22 22 20 18 15 14 14 17 17 14 11 9 7 4 4 5 6 5 3 4 6 8 8 7 7 8 9 10 11 12 13 13 14 16 17 18 19 19 19 20 20 20 19 18 17 17 17 17 17 17 17 17 17
14 14 15 16 16 16 17 17 18 19 19 20 21 21 22 22 22 22 21 20 19 18 18 17 16 16 16 17 17 18 20 21 22 21 21 20 18 16 14 14 17 18 17 14 11 9 6 3 2 3 3 3 3 3 5 6 7 8 9 10 11 12 14 14 15 16 17 18 19 19 19 19 19 19 19 18 16 16 17 18 18 17 17 17 17 18
13 13 14 15 16 16 17 17 18 19 20 21 22 22 23 23 23 22 21 20 20 19 19 18 16 15 15 14 15 16 18 20 21 21 20 19 16 15 15 15 16 17 16 16 15 13 9 4 1 1 1 4 6 7 8 8 8 9 11 12 13 14 15 16 16 16 16 17 17 18 17 17 17 17 18 17 18 18 19 20 20 19 18 18 17 18
10 11 12 14 15 16 17 17 18 20 22 23 24 24 24 24 24 23 22 21 20 20 19 18 18 17 16 16 16 17 18 20 20 20 19 17 15 13 13 15 16 16 14 13 14 13 11 7 3 2 1 2 4 7 9 9 9 10 12 13 15 15 15 14 12 12 13 14 15 16 16 16 17 17 18 19 19 20 21 21 21 20 19 19 18 18
10 11 12 14 16 17 18 19 21 23 24 25 25 25 25 25 24 23 22 21 21 20 19 19 19 18 18 18 18 18 19 19 19 18 17 15 13 11 10 12 14 15 14 12 12 12 12 9 7 6 5 3 3 5 7 9 10 11 12 11 11 11 12 11 11 12 12 14 15 16 17 17 18 18 19 20 20 21 21 21 20 20 19 19 19 19
11 11 12 14 16 18 19 21 23 25 26 26 26 25 25 25 24 23 22 21 21 20 20 20 20 20 19 18 18 18 18 18 17 15 14 12 11 9 8 9 10 12 13 12 12 12 12 11 10 10 9 9 9 10 11 12 12 12 11 10 11 13 15 15 14 14 14 14 14 15 16 17 18 19 19 20 20 21 20 20 20 20 19 19 19 19
12 12 14 16 18 19 21 23 25 26 26 26 25 24 24 24 24 22 21 20 20 20 20 20 20 20 19 18 17 16 16 15 14 12 11 10 9 8 8 8 8 10 11 11 11 11 11 11 11 11 10 10 10 10 11 13 14 13 12 12 14 16 17 15 14 12 12 12 13 13 15 16 18 19 20 21 21 21 21 20 20 20 19 19 19 19
13 15 17 19 21 23 24 25 25 25 24 23 22 21 22 23 23 22 20 19 18 18 19 19 19 18 16 14 13 13 13 12 11 10 9 8 7 7 7 7 8 9 10 10 10 10 10 10 11 12 11 11 11 10 11 12 14 14 13 13 13 11 9 11 13 12 12 13 14 15 16 18 19 20 21 22 22 22 21 21 20 20 19 19 19 20
17 19 21 22 24 25 25 24 23 22 22 21 20 20 21 22 22 21 19 18 17 17 17 17 17 16 13 11 10 11 11 10 9 8 7 6 6 5 5 6 7 8 9 9 9 9 9 9 10 11 11 11 12 12 13 13 13 14 14 14 13 12 11 13 15 17 17 18 18 19 19 20 20 21 22 22 22 22 22 21 21 21 20 20 20 21
20 21 22 23 24 24 22 21 21 21 20 20 19 19 20 21 21 20 18 17 17 16 16 17 15 11 7 7 8 10 10 9 8 7 6 6 5 4 4 5 6 7 8 8 8 8 8 8 9 10 10 11 12 13 14 14 14 15 15 15 15 16 18 19 20 20 20 21 21 21 21 21 21 21 21 22 22 22 22 21 21 21 21 21 21 21
20 20 21 22 22 21 20 21 21 20 19 18 18 18 20 20 20 19 18 17 16 16 16 16 13 8 5 5 7 8 9 9 9 9 7 6 6 5 4 4 4 4 5 6 7 8 8 9 9 9 10 11 12 14 15 16 15 15 16 16 16 16 18 20 20 21 21 22 22 22 21 20 20 20 20 21 22 23 23 22 22 21 21 21 21 21
18 19 19 20 20 20 20 21 21 19 18 17 16 17 19 20 19 18 17 17 16 15 15 14 11 8 6 7 8 8 8 8 9 10 10 8 7 6 5 4 4 3 4 5 7 8 10 11 11 11 11 10 11 12 15 16 16 16 16 17 17 17 18 19 20 21 20 21 22 21 20 19 18 18 19 21 22 23 23 23 22 21 20 20 20 21
18 18 18 19 19 19 19 20 20 19 17 16 16 17 18 19 18 17 16 16 16 15 13 11 9 8 8 8 9 10 9 9 9 10 11 10 9 7 6 6 5 5 5 6 8 10 12 13 14 15 15 14 12 11 14 16 17 17 17 17 17 17 18 20 21 20 20 20 20 20 20 19 18 18 19 20 21 22 23 23 22 21 20 20 21 21
18 18 18 18 18 18 18 19 19 18 17 16 16 16 17 17 17 16 16 16 16 14 12 10 8 7 7 8 9 11 10 10 11 11 11 11 10 9 8 7 6 6 6 7 9 11 13 15 17 18 19 19 18 16 16 17 17 17 17 17 17 18 19 20 21 21 20 20 20 20 19 19 19 18 18 18 19 21 23 24 23 22 20 20 20 21
17 17 18 18 17 16 17 18 18 17 16 16 16 16 16 16 15 15 16 16 15 13 12 11 9 8 7 8 9 11 11 11 11 11 11 11 10 10 9 7 6 4 4 5 7 9 10 12 13 15 17 19 20 20 20 19 18 17 16 17 18 18 19 20 21 21 21 20 20 20 19 19 19 18 17 17 17 20 22 23 23 22 21 20 19 20
16 17 17 17 16 16 17 17 17 16 16 16 16 15 15 14 14 14 15 14 13 12 11 11 10 9 7 8 9 11 11 11 11 11 11 10 10 9 8 6 4 3 2 3 4 4 4 4 5 7 10 12 14 16 19 19 17 16 15 16 17 17 18 20 21 21 21 20 20 20 19 19 18 18 17 16 15 15 17 19 21 21 20 19 19 19
Wind_Direction
255 256 254 253 248 243 240 238 235 231 230 231 231 231 231 231 232 234 235 237 237 236 235 233 232 231 229 228 227 226 224 222 220 217 216 216 217 219 220 221 221 223 225 227 231 234 237 239 240 242 244 247 249 251 252 252 252 250 249 249 249 251 252 254 256 259 262 264 266 267 269 271 272 274 275 277 278 279 280 280 280 281 281 282 283 284
253 253 252 250 245 239 237 238 235 231 230 230 231 231 230 228 228 230 233 235 235 234 232 230 229 228 226 224 224 223 222 220 217 215 213 214 215 216 217 219 220 221 224 227 231 235 237 238 240 242 246 248 251 252 252 252 250 249 247 247 247 248 249 250 254 257 260 263 265 266 268 270 272 274 275 276 277 278 279 280 280 280 280 280 281 282
252 250 247 246 241 236 234 235 235 234 233 232 232 231 228 224 223 224 227 229 230 229 227 226 225 225 224 222 221 220 219 216 214 212 211 212 213 214 215 216 218 220 223 227 231 235 236 238 240 244 248 250 252 252 252 250 247 245 244 244 245 246 246 249 252 256 259 261 264 266 268 269 271 273 274 275 276 277 277 278 278 278 278 278 279 281
251 248 244 244 241 237 235 234 233 233 233 234 233 231 228 222 219 220 222 223 223 222 221 222 222 222 221 220 219 217 216 214 211 210 210 211 212 212 213 215 216 219 223 228 232 234 236 238 241 246 250 252 252 251 249 246 243 241 240 241 242 244 246 248 252 255 258 261 263 265 267 269 270 272 273 274 274 275 275 276 276 276 276 277 279 281
250 248 246 244 239 236 235 234 232 231 231 231 230 229 227 222 219 218 220 221 219 217 215 216 218 219 218 217 216 215 214 212 210 209 209 210 211 211 212 213 216 220 225 229 232 234 236 239 244 249 252 253 251 249 246 242 239 238 239 240 241 243 246 249 252 255 258 260 262 264 266 267 269 270 272 272 273 273 274 275 275 275 275 277 279 281
251 250 249 245 239 233 231 228 226 224 222 222 224 225 224 222 219 217 216 216 215 213 211 211 214 216 217 216 215 214 213 212 210 209 209 209 210 211 212 214 217 222 226 230 232 235 238 242 248 253 255 253 250 246 242 239 237 237 238 239 241 244 246 249 251 254 257 259 261 263 265 267 268 269 270 270 271 272 272 273 273 274 275 277 279 280
252 251 250 246 240 232 225 221 218 214 208 208 214 219 221 220 218 216 216 214 212 210 209 209 211 213 215 216 215 214 212 211 211 211 210 210 211 212 213 215 219 223 227 230 232 235 239 244 250 255 255 253 249 244 239 237 236 236 238 240 242 244 247 249 251 254 256 258 260 262 264 265 266 267 268 268 269 270 271 272 272 273 275 277 279 279
252 251 248 243 236 227 220 216 214 211 206 204 205 209 214 216 217 217 218 217 213 209 207 207 208 209 211 214 214 212 210 209 209 209 209 210 210 211 213 216 220 224 227 229 232 235 240 246 251 254 253 250 246 241 237 235 235 236 238 240 242 245 247 249 251 254 256 258 260 262 263 264 265 265 266 266 267 268 269 270 271 273 275 277 278 279
249 248 244 238 229 219 214 215 215 215 214 211 205 200 202 208 213 217 219 218 214 210 205 204 204 206 209 212 212 210 209 207 207 207 208 208 209 210 213 217 221 224 226 228 231 235 241 247 251 252 251 247 242 238 235 234 235 236 238 240 243 245 247 249 251 253 255 257 259 261 263 263 263 263 263 264 265 266 268 269 270 271 273 275 276 277
246 245 242 237 230 222 212 214 218 219 219 220 211 201 199 200 204 208 213 215 214 211 207 204 202 202 205 208 209 209 207 207 209 210 210 211 212 214 217 220 222 223 224 226 230 236 242 247 250 250 247 243 239 235 234 233 234 236 238 241 243 245 247 249 251 253 255 257 259 261 262 262 261 261 261 262 264 265 266 267 268 270 271 273 274 274
245 242 239 235 231 226 218 218 219 220 219 216 209 203 203 204 203 203 205 210 211 210 207 206 204 201 199 200 203 205 205 205 207 210 212 214 216 218 220 222 222 223 223 226 231 237 242 246 248 246 242 238 235 233 232 233 234 236 239 241 243 245 247 249 251 252 254 256 258 259 260 259 259 259 260 261 262 264 265 266 267 268 270 271 272 273
240 238 236 234 230 222 216 217 219 218 214 208 202 202 207 210 209 207 204 206 206 205 204 206 206 204 200 198 197 199 201 202 204 206 208 210 211 213 215 218 221 223 225 229 233 238 243 245 244 242 238 235 233 231 231 232 234 237 239 242 244 246 247 249 250 252 253 255 257 257 258 257 258 258 259 260 261 263 263 265 266 267 269 270 272 273
235 234 233 232 228 220 211 209 205 199 199 199 199 201 208 213 211 208 205 205 204 203 202 203 205 206 205 202 198 196 196 198 201 202 203 203 205 206 210 214 219 224 228 233 237 241 242 242 240 238 235 232 231 230 230 232 235 238 240 242 244 246 247 248 249 251 252 253 254 255 256 256 256 257 258 259 261 262 263 264 266 267 269 271 272 274
230 230 231 228 222 215 209 202 193 188 195 203 207 209 212 212 207 201 200 203 204 203 199 198 199 202 203 203 202 199 196 195 195 197 199 202 205 207 211 216 223 229 233 237 240 242 242 240 237 234 231 229 228 229 230 233 235 238 241 243 244 245 246 247 248 249 250 252 253 254 255 255 256 257 258 259 260 261 262 264 266 267 269 271 273 274
230 231 215 205 203 205 204 200 197 199 205 210 212 213 213 207 197 192 192 196 197 193 187 187 191 195 196 198 201 201 197 193 191 193 198 204 209 212 216 221 228 234 237 239 241 242 241 237 234 231 228 226 226 228 230 233 236 238 241 243 244 244 245 245 246 248 249 251 252 253 254 255 256 257 258 260 261 262 263 264 266 267 269 271 272 273
237 252 249 239 220 208 209 206 205 207 211 211 210 206 202 195 193 194 193 190 182 174 168 168 174 185 194 197 199 200 197 193 191 192 197 204 211 215 218 223 229 234 237 238 238 237 236 233 231 230 228 227 228 229 231 234 236 239 240 242 242 243 243 245 246 248 250 251 253 254 254 255 255 257 258 260 261 263 264 265 266 268 269 271 272 273
234 248 250 248 241 221 219 216 215 216 215 213 212 209 204 200 198 197 192 183 171 162 163 164 162 169 194 201 203 201 198 194 192 195 198 204 210 215 218 222 226 229 232 232 232 231 228 227 227 228 228 229 229 230 231 234 236 238 239 240 241 241 242 244 247 249 251 253 254 254 254 254 255 256 258 260 261 263 264 266 267 268 269 270 271 273
251 257 254 244 231 223 221 218 218 219 216 213 211 211 210 206 200 193 186 177 170 166 173 180 184 178 168 184 204 203 198 194 193 195 199 204 209 213 216 220 224 226 227 226 226 225 224 224 225 226 228 230 230 230 232 234 236 237 238 239 240 241 243 246 249 251 253 254 254 253 254 254 254 256 258 259 261 263 265 266 267 268 269 270 271 272
263 261 261 258 243 231 228 223 218 215 214 211 209 207 206 203 197 189 183 177 175 176 178 184 196 197 184 184 197 197 194 193 192 194 199 205 208 209 212 214 219 222 223 222 222 222 222 224 226 227 229 230 231 232 233 235 236 237 238 239 240 243 245 248 250 253 254 253 253 253 253 253 254 255 257 260 261 263 265 266 267 268 269 270 271 271
265 259 253 246 244 243 239 227 219 216 215 214 210 204 198 195 191 187 183 182 182 183 183 185 193 199 193 189 186 185 186 188 190 194 199 202 203 205 207 209 212 215 218 220 221 221 221 224 226 228 230 231 232 233 235 236 237 238 239 240 241 243 246 248 251 252 253 252 252 252 253 254 254 256 258 260 262 264 265 266 267 268 269 270 270 271
269 262 254 249 248 249 242 227 221 219 217 214 208 199 192 189 188 187 186 185 184 184 184 188 194 193 184 178 174 176 179 182 186 191 195 197 200 202 204 206 209 212 215 218 219 220 221 224 227 229 231 233 233 234 236 237 238 238 239 240 241 243 245 247 249 250 250 250 251 251 253 254 255 257 258 260 262 264 265 266 267 268 268 269 270 271
267 263 258 253 249 244 238 232 228 225 220 213 204 195 191 186 186 186 186 182 179 179 180 183 183 178 170 165 167 172 177 182 185 185 182 186 200 204 203 204 207 210 214 216 217 218 220 223 226 229 232 234 235 235 236 237 238 238 238 239 240 241 244 246 247 248 248 250 250 251 253 255 256 258 259 261 262 264 265 266 267 268 268 269 270 270
262 260 257 253 248 243 240 239 237 232 223 213 205 199 197 191 189 189 187 182 178 175 170 164 156 150 150 154 160 168 175 183 186 182 171 168 200 205 201 201 204 208 212 213 213 214 217 220 224 228 232 234 235 236 237 238 238 238 238 238 239 240 241 244 245 247 247 249 250 252 254 256 257 259 260 262 263 265 266 267 267 268 269 269 269 270
258 258 256 254 250 247 245 244 240 232 223 216 212 209 206 201 198 196 191 183 175 164 153 142 131 124 129 140 152 165 176 182 184 182 174 176 193 198 196 197 199 204 209 210 210 210 213 218 223 227 231 235 236 237 239 240 240 240 239 238 238 238 240 242 244 246 247 249 251 253 255 257 259 260 261 263 264 265 266 267 268 269 269 269 270 270
258 258 258 258 257 254 249 248 242 232 223 216 211 208 204 200 196 191 184 173 162 150 139 128 117 115 130 142 154 168 179 184 186 185 180 183 188 189 190 193 195 199 204 205 206 208 212 217 222 227 231 234 236 238 240 242 242 241 240 238 237 237 239 241 243 246 248 251 253 255 257 259 260 261 263 264 265 266 267 268 269 269 270 270 270 270
261 260 259 260 262 260 253 250 244 237 227 218 210 203 197 189 178 166 155 151 147 142 137 134 140 156 152 153 162 176 184 187 190 192 190 182 176 180 185 190 193 196 197 199 202 206 212 218 223 227 232 235 238 239 241 243 243 242 240 238 237 237 238 241 244 247 250 253 256 258 260 261 262 263 264 265 266 267 268 269 269 269 270 270 270 271
262 261 260 261 262 261 255 250 245 238 229 221 213 205 196 181 164 148 141 148 152 153 152 154 156 154 153 159 172 182 186 189 193 197 198 187 176 177 185 187 190 193 193 196 201 206 213 220 226 230 235 239 242 243 242 242 241 240 239 237 237 237 240 243 246 249 253 256 259 261 262 263 264 264 265 266 267 268 268 269 269 269 269 270 270 270
263 261 260 260 259 257 251 247 241 233 224 219 213 207 198 181 165 154 165 167 164 163 163 161 157 154 157 171 180 182 185 191 196 198 198 189 180 179 185 185 187 190 190 196 204 211 218 225 231 236 241 245 246 245 241 237 236 237 237 237 237 239 242 246 250 253 256 259 261 262 263 264 265 265 266 267 268 269 269 269 269 269 269 269 268 268
263 261 259 255 251 247 242 235 228 220 214 211 208 205 199 188 178 171 173 170 166 163 164 161 154 148 148 153 163 173 185 195 198 197 194 187 184 185 181 181 184 187 187 189 202 217 225 230 234 239 244 245 243 237 230 226 228 231 233 236 239 244 248 252 255 258 261 262 263 264 264 265 266 266 267 268 269 269 269 269 269 269 268 267 266 265
253 248 241 234 226 220 214 208 203 200 199 199 198 198 197 194 188 182 177 171 165 161 157 151 144 138 131 131 138 163 195 202 200 195 190 185 183 180 176 176 181 184 181 173 175 223 230 228 226 228 232 230 224 216 213 214 219 224 230 235 241 248 253 258 261 263 265 265 265 265 266 266 267 267 268 269 270 270 270 269 269 268 267 265 265 264
211 199 188 181 179 179 179 178 177 177 179 183 186 188 190 192 190 185 178 172 167 164 157 152 149 148 146 138 143 175 210 202 197 193 189 184 180 175 171 172 177 181 182 177 163 80 235 227 206 199 202 206 207 208 211 216 222 230 237 244 249 254 258 262 265 266 267 267 266 266 267 267 268 269 270 271 272 272 271 270 268 267 265 264 263 263
175 166 159 154 153 156 159 161 161 161 164 169 175 180 184 186 184 180 176 173 171 166 160 155 153 156 159 161 167 173 179 187 188 189 188 183 178 175 173 171 171 177 186 193 188 158 158 218 188 187 195 205 215 223 228 234 241 247 253 259 262 264 264 266 267 268 267 267 267 267 268 269 270 271 272 273 273 273 272 270 268 266 263 262 261 261
164 158 154 150 149 151 152 154 155 156 158 162 167 171 175 177 176 175 174 175 174 169 161 155 152 156 162 163 158 148 154 170 178 183 185 180 172 168 172 170 168 172 183 196 202 197 178 175 188 200 215 227 238 247 252 255 259 262 265 268 270 271 271 271 270 269 268 268 268 268 269 270 272 273 274 274 275 274 273 271 268 265 262 260 260 260
156 155 151 148 147 147 149 151 152 153 154 155 158 161 163 165 166 168 170 172 173 171 166 160 156 157 161 160 143 126 138 159 172 180 183 178 167 162 169 170 168 169 174 184 195 204 215 203 197 209 238 246 251 257 262 266 269 271 272 271 271 272 274 274 273 271 270 270 270 270 271 272 273 274 275 275 275 274 273 271 268 265 262 260 260 260
150 149 147 146 144 142 142 144 145 145 146 146 147 150 153 155 157 160 163 166 168 170 171 170 169 168 167 162 149 131 138 157 168 177 181 178 170 163 167 171 174 174 173 176 183 190 206 207 206 211 232 255 261 262 263 267 272 276 275 271 270 271 272 273 273 273 273 274 274 274 275 276 276 277 277 277 276 274 272 270 268 266 264 262 261 260
146 144 147 147 144 140 138 137 137 138 137 138 140 143 145 147 149 152 155 158 161 164 168 172 176 179 179 172 161 150 149 158 166 173 179 180 175 167 165 174 180 181 179 179 182 184 183 193 207 215 225 246 267 268 266 268 271 272 269 266 265 266 268 269 272 274 276 277 277 277 277 278 279 280 280 280 278 274 272 270 269 269 267 266 264 263
150 150 152 151 147 143 139 136 134 133 133 133 136 139 140 141 142 144 147 151 155 158 160 163 169 175 178 177 170 160 156 160 165 171 177 182 181 175 169 176 185 190 189 185 184 184 180 171 190 215 223 218 227 246 260 268 272 271 268 268 268 268 269 271 272 274 275 276 277 278 279 280 281 281 282 280 277 274 272 271 271 271 270 270 268 267
158 157 156 153 149 144 140 136 134 133 134 133 134 136 137 138 139 141 144 149 153 155 156 156 157 159 161 163 162 160 159 161 164 170 177 183 186 185 180 179 186 194 199 195 191 187 180 166 157 196 230 225 231 241 256 268 274 275 277 279 279 278 277 278 278 277 276 276 277 279 280 280 280 280 280 279 277 276 274 273 273 273 272 272 271 270
162 159 157 154 151 147 141 137 136 136 136 136 136 137 137 138 139 142 144 148 151 152 151 150 148 146 147 149 151 154 157 161 165 171 176 182 188 193 193 187 186 191 199 201 198 193 188 181 171 166 202 228 242 251 260 268 274 280 287 292 292 290 287 286 284 281 278 277 277 278 279 279 278 278 277 277 276 275 274 275 275 275 274 273 273 273
163 157 153 152 150 147 142 140 139 139 138 137 137 138 137 137 137 140 144 146 147 146 145 144 142 140 141 144 147 152 157 162 166 171 176 181 187 195 202 198 192 189 191 194 196 197 197 200 205 211 215 231 257 266 272 274 277 284 293 296 293 290 292 292 289 284 281 279 278 278 279 279 280 279 278 277 276 275 274 274 274 275 275 275 275 276
157 149 145 144 144 143 142 141 141 141 140 138 137 135 135 135 135 136 139 141 141 141 140 139 137 136 138 140 145 151 157 163 168 173 178 184 191 200 208 208 199 191 187 189 193 199 204 210 218 228 238 250 264 272 274 274 277 280 284 283 283 287 293 293 290 286 285 283 282 281 281 281 281 280 279 278 277 276 276 275 276 277 278 277 277 277
146 140 137 136 136 137 139 141 142 142 141 139 136 134 136 137 137 137 136 135 136 138 140 138 135 132 132 137 145 152 159 165 171 177 183 191 199 206 209 207 199 191 186 186 192 200 209 217 225 234 243 254 264 271 273 275 276 276 274 273 281 290 295 293 292 291 288 287 287 287 284 283 281 280 280 280 279 279 279 278 278 278 278 278 277 277
138 135 135 135 135 137 138 139 139 139 139 136 135 137 141 143 143 142 139 137 137 140 142 142 140 136 133 135 143 152 159 165 171 176 181 187 193 199 201 198 193 188 185 186 192 202 213 223 232 240 248 255 263 268 273 276 278 276 273 272 277 283 287 288 292 294 293 289 288 286 285 283 283 283 283 282 281 281 280 280 278 278 277 277 277 277
133 133 133 135 136 137 137 137 137 138 138 136 136 139 143 147 147 145 142 140 142 144 145 146 145 141 135 136 143 150 156 159 162 166 169 174 177 179 184 187 187 187 188 189 193 202 215 227 237 244 251 257 262 266 269 273 275 275 275 274 271 265 262 274 284 289 289 288 287 286 285 285 284 284 283 282 281 281 280 280 280 279 279 279 278 278
132 132 132 134 135 134 133 135 138 140 139 139 138 140 145 149 149 148 146 144 143 144 146 147 145 140 137 143 148 153 158 160 163 166 169 171 172 172 172 178 183 187 192 196 201 207 216 228 240 249 255 259 260 262 264 267 271 274 275 275 273 268 266 273 278 282 283 284 284 285 287 288 287 285 283 282 281 281 281 281 281 281 281 281 280 279
131 131 132 134 134 134 136 139 140 140 138 139 141 144 148 151 151 150 149 147 145 145 149 151 149 146 149 153 154 153 157 164 171 176 179 180 180 178 174 177 184 192 199 206 213 221 230 237 246 255 261 264 263 261 259 261 265 269 272 274 274 274 273 275 276 277 278 279 281 285 288 289 287 284 281 281 283 283 283 283 282 281 282 282 282 281
133 134 135 135 136 136 138 140 140 139 137 138 141 146 150 153 152 151 151 150 149 148 150 153 155 157 159 158 157 155 156 162 171 178 182 183 184 183 181 183 190 202 217 224 229 236 241 245 249 254 258 263 265 264 261 260 260 262 266 271 273 274 273 274 276 278 279 279 280 283 287 287 284 281 281 283 285 285 285 285 284 283 283 283 283 282
138 138 138 138 137 137 138 140 141 141 141 141 143 148 153 155 154 151 151 152 152 150 150 154 157 160 160 161 160 160 158 160 166 173 178 180 181 183 184 188 195 208 224 234 241 246 250 251 251 251 250 251 255 262 264 263 261 261 263 268 270 271 271 274 278 281 282 281 282 283 284 281 279 280 283 285 286 285 285 285 286 285 285 284 283 283
142 141 141 140 140 140 141 143 144 143 142 142 144 148 153 157 157 155 153 153 153 152 152 156 158 159 158 159 160 159 157 157 160 164 169 172 175 178 183 189 198 212 230 247 257 262 264 263 259 255 250 246 247 252 259 263 265 266 267 268 268 268 270 274 279 282 283 282 282 283 282 280 280 281 283 284 284 284 285 286 287 287 287 285 284 282
142 143 143 143 142 142 144 145 145 144 143 143 144 147 151 155 157 157 156 155 154 154 156 158 159 157 155 157 157 157 156 153 153 155 160 166 172 177 183 191 203 224 256 276 283 284 281 275 269 263 256 248 245 246 251 258 266 270 270 269 268 268 269 272 277 281 283 282 282 282 282 281 281 282 281 280 280 283 285 286 287 287 288 287 285 283
143 144 144 144 143 143 144 145 145 144 142 143 145 146 148 150 152 154 155 154 153 154 157 159 159 157 156 157 158 158 157 153 151 151 158 167 176 182 187 194 204 225 267 297 299 294 289 291 289 281 268 250 244 245 248 252 259 266 269 270 270 270 269 271 276 280 282 282 283 283 282 281 281 280 278 276 277 281 283 284 285 287 289 289 287 285